This is the latest recevied weather packets stored in our database for station/object LU3MCV-13. If no packets are shown the sender has not sent any weather packets the latest 10 day(s).
| Time | Temp. | Humidity | Pressure | Rain* | Wind** | Luminosity | Snow |
|---|---|---|---|---|---|---|---|
| 1777319771 | 17.78° C | 13% | 932.3 hPa | - | - | - | - |
| 1777318870 | 17.78° C | 13% | 932.4 hPa | - | - | - | - |
| 1777317970 | 17.78° C | 13% | 932.5 hPa | - | - | - | - |
| 1777317071 | 17.78° C | 13% | 932.5 hPa | - | - | - | - |
| 1777316170 | 18.89° C | 13% | 932.7 hPa | - | - | - | - |
| 1777315270 | 17.78° C | 13% | 933 hPa | - | - | - | - |
| 1777314371 | 17.78° C | 13% | 933 hPa | - | - | - | - |
| 1777313470 | 17.78° C | 13% | 933 hPa | - | - | - | - |
| 1777312570 | 17.22° C | 13% | 933.3 hPa | - | - | - | - |
| 1777311670 | 17.22° C | 13% | 933.5 hPa | - | - | - | - |
| 1777310770 | 17.22° C | 13% | 933.8 hPa | - | - | - | - |
| 1777309870 | 16.11° C | 13% | 934.4 hPa | - | - | - | - |
| 1777308970 | 16.11° C | 13% | 934.5 hPa | - | - | - | - |
| 1777308070 | 17.22° C | 13% | 934.9 hPa | - | - | - | - |
| 1777307170 | 17.22° C | 13% | 935.1 hPa | - | - | - | - |
| 1777306270 | 16.11° C | 13% | 935.6 hPa | - | - | - | - |
| 1777305370 | 15° C | 10% | 935.8 hPa | - | - | - | - |
| 1777304470 | 13.89° C | 15% | 936.2 hPa | - | - | - | - |
| 1777303570 | 12.78° C | 16% | 936.5 hPa | - | - | - | - |
| 1777302670 | 12.78° C | 16% | 936.7 hPa | - | - | - | - |
| 1777301770 | 12.22° C | 16% | 937 hPa | - | - | - | - |
| 1777300870 | 11.11° C | 17% | 937.1 hPa | - | - | - | - |
| 1777299970 | 11.11° C | 17% | 937.1 hPa | - | - | - | - |
| 1777299070 | 11.11° C | 16% | 937.4 hPa | - | - | - | - |
| 1777298170 | 11.11° C | 16% | 937.3 hPa | - | - | - | - |
* Rain since midnight (hover to see other rain measurements)
** Current wind speed in m/s (hover to see current wind gust speed)